"Timestamp","TZ","WindDir_Mean (deg)","WindSpd_Mean (km/h)","WindSpd_Min (km/h)","WindSpd_Max (km/h)","Temp_Mean (deg)","RH_Mean (%)","MSLP_Mean (hPa)","Rain_Acc (mm)","Rain_Intensity (mm/h)","Hail_Acc (hits/cm2)","Hail_Intensity (hits/cm2hr)","Solar_Mean (W/m2)"
2021/10/25 00:00:00.011,n,35,6.48,4.32,7.92,22,76.3,1016.12,0,0,0,0,0.031357
2021/10/25 00:01:00.000,n,25,3.6,1.8,5.4,22,76.4,1016.12,0,0,0,0,0.029602
2021/10/25 00:02:00.000,n,166,5.4,4.68,9.36,22,76.3,1016.12,0,0,0,0,0.030479
2021/10/25 00:03:00.000,n,123,12.96,12.6,13.32,22,76.3,1016.12,0,0,0,0,0.029602
2021/10/25 00:04:00.000,n,103,5.04,3.6,6.84,21.9,76.4,1016.12,0,0,0,0,0.032234
2021/10/25 00:05:00.000,n,93,6.84,6.12,7.2,21.9,76.5,1016.12,0,0,0,0,0.032234
2021/10/25 00:06:00.008,n,108,10.8,9.36,11.52,21.9,76.4,1016.12,0,0,0,0,0.030479
2021/10/25 00:07:00.005,n,100,4.32,3.96,5.04,21.9,76.5,1016.12,0,0,0,0,0.032234
2021/10/25 00:08:00.002,n,114,4.68,4.32,5.4,21.9,76.6,1016.02,0,0,0,0,0.032234
2021/10/25 00:09:00.015,n,139,6.48,6.12,6.84,21.9,76.6,1016.02,0,0,0,0,0.032234
2021/10/25 00:10:00.000,n,147,1.8,0.72,3.6,21.9,76.6,1016.02,0,0,0,0,0.030479
2021/10/25 00:11:00.000,n,115,3.6,3.24,3.96,21.9,76.7,1016.02,0,0,0,0,0.029602
2021/10/25 00:12:00.000,n,106,5.4,5.4,6.12,21.9,76.7,1016.02,0,0,0,0,0.030479
2021/10/25 00:13:00.005,n,99,5.04,2.88,7.56,21.9,76.7,1016.02,0,0,0,0,0.029602
2021/10/25 00:14:00.002,n,127,3.24,2.88,3.6,21.9,76.7,1016.12,0,0,0,0,0.030479
2021/10/25 00:15:00.000,n,123,5.04,3.96,6.12,21.9,76.7,1016.12,0,0,0,0,0.030479
2021/10/25 00:16:00.012,n,87,5.4,2.16,6.12,21.9,76.8,1016.12,0,0,0,0,0.031357
2021/10/25 00:17:00.009,n,28,3.6,2.16,5.04,21.9,76.8,1016.12,0,0,0,0,0.032234
2021/10/25 00:18:00.006,n,89,3.96,0.36,6.12,21.9,76.9,1016.12,0,0,0,0,0.030479
2021/10/25 00:19:00.000,n,102,6.48,6.48,6.84,21.9,76.9,1016.12,0,0,0,0,0.031357
2021/10/25 00:20:00.000,n,185,0.36,0.36,0.72,21.9,76.8,1016.12,0,0,0,0,0.031357
2021/10/25 00:21:00.000,n,145,6.84,5.4,8.28,21.9,76.8,1016.12,0,0,0,0,0.031357
2021/10/25 00:22:00.008,n,113,3.96,3.24,4.32,21.9,76.9,1016.12,0,0,0,0,0.028763
2021/10/25 00:23:00.000,n,121,5.76,3.96,7.2,21.9,77,1016.12,0,0,0,0,0.034828
2021/10/25 00:24:00.000,n,139,8.28,7.2,9,21.8,77,1016.12,0,0,0,0,0.029602
2021/10/25 00:25:00.011,n,102,4.32,4.32,5.04,21.8,76.8,1016.12,0,0,0,0,0.030479
2021/10/25 00:26:00.009,n,127,1.08,0,5.04,21.8,76.9,1016.12,0,0,0,0,0.028763
2021/10/25 00:27:00.006,n,136,7.56,6.84,8.28,21.8,76.9,1016.12,0,0,0,0,0.032234
2021/10/25 00:28:00.000,n,130,7.56,5.76,7.92,21.8,76.9,1016.12,0,0,0,0,0.034828
2021/10/25 00:29:00.000,n,182,2.52,1.8,4.32,21.8,76.8,1016.12,0,0,0,0,0.030479
2021/10/25 00:30:00.000,n,72,3.24,2.52,4.32,21.8,76.9,1016.12,0,0,0,0,0.033989
2021/10/25 00:31:00.000,n,132,6.48,5.04,7.2,21.8,76.8,1016.12,0,0,0,0,0.030479
2021/10/25 00:32:00.007,n,0,1.8,0.72,3.6,21.8,76.9,1016.12,0,0,0,0,0.032234
2021/10/25 00:33:00.005,n,16,2.52,1.44,4.32,21.8,76.9,1016.02,0,0,0,0,0.033989
2021/10/25 00:34:00.001,n,0,3.6,1.44,5.4,21.8,76.6,1016.02,0,0,0,0,0.032234
2021/10/25 00:35:00.000,n,126,5.4,5.04,6.48,21.8,76.6,1016.02,0,0,0,0,0.025253
2021/10/25 00:36:00.011,n,122,1.44,1.08,2.52,21.8,76.6,1016.02,0,0,0,0,0.029602
2021/10/25 00:37:00.000,n,65,2.52,2.16,3.24,21.8,76.7,1016.02,0,0,0,0,0.031357
2021/10/25 00:38:00.000,n,132,8.28,6.84,9.72,21.8,76.8,1016.02,0,0,0,0,0.028763
2021/10/25 00:39:00.002,n,123,7.92,7.56,8.28,21.8,76.8,1015.92,0,0,0,0,0.027885
2021/10/25 00:40:00.000,n,136,7.56,7.2,7.92,21.8,76.9,1015.92,0,0,0,0,0.028763
2021/10/25 00:41:00.000,n,105,2.16,0,5.04,21.7,76.9,1015.92,0,0,0,0,0.026131
2021/10/25 00:42:00.009,n,113,4.32,3.96,4.68,21.7,76.8,1015.92,0,0,0,0,0.027885
2021/10/25 00:43:00.006,n,75,2.88,1.08,3.6,21.7,76.8,1015.82,0,0,0,0,0.027008
2021/10/25 00:44:00.004,n,49,2.88,1.8,4.32,21.7,76.8,1015.82,0,0,0,0,0.026131
2021/10/25 00:45:00.001,n,124,6.12,5.4,7.2,21.7,76.8,1015.82,0,0,0,0,0.021782
2021/10/25 00:46:00.000,n,137,6.48,6.12,7.56,21.7,76.8,1015.82,0,0,0,0,0.027008
2021/10/25 00:47:00.000,n,33,3.24,2.16,4.68,21.7,76.8,1015.82,0,0,0,0,0.027008
2021/10/25 00:48:00.005,n,139,1.08,0.72,1.44,21.7,76.8,1015.82,0,0,0,0,0.026131
2021/10/25 00:49:00.002,n,112,2.52,1.44,3.6,21.7,76.8,1015.82,0,0,0,0,0.022659
2021/10/25 00:50:00.000,n,118,6.12,3.96,7.56,21.7,76.9,1015.72,0,0,0,0,0.025253
2021/10/25 00:51:00.000,n,28,2.52,1.8,3.24,21.7,77,1015.72,0,0,0,0,0.025253
2021/10/25 00:52:00.011,n,54,5.4,4.32,7.92,21.7,77,1015.72,0,0,0,0,0.026131
2021/10/25 00:53:00.008,n,77,4.68,3.6,5.76,21.7,77,1015.72,0,0,0,0,0.027008
2021/10/25 00:54:00.005,n,81,6.84,0.72,9.36,21.7,77,1015.72,0,0,0,0,0.026131
2021/10/25 00:55:00.000,n,54,3.96,1.44,7.56,21.7,77.1,1015.72,0,0,0,0,0.027885
2021/10/25 00:56:00.000,n,160,4.32,2.16,5.76,21.7,77,1015.82,0,0,0,0,0.026131
2021/10/25 00:57:00.000,n,154,4.32,3.96,4.68,21.6,77.1,1015.82,0,0,0,0,0.025253
2021/10/25 00:58:00.000,n,141,5.76,4.68,6.84,21.6,77.2,1015.82,0,0,0,0,0.025253
2021/10/25 00:59:00.008,n,129,6.12,5.76,6.48,21.6,77.2,1015.92,0,0,0,0,0.024376
2021/10/25 01:00:00.005,n,185,2.52,1.08,5.04,21.6,77.2,1015.92,0,0,0,0,0.025253
2021/10/25 01:01:00.002,n,146,6.48,6.12,6.84,21.6,77.2,1015.92,0,0,0,0,0.023537
2021/10/25 01:02:00.000,n,108,2.16,1.8,2.52,21.6,77.3,1015.92,0,0,0,0,0.021782
2021/10/25 01:03:00.013,n,48,1.08,0.36,1.44,21.6,77.4,1015.92,0,0,0,0,0.022659
2021/10/25 01:04:00.000,n,74,2.16,1.44,5.76,21.6,77.4,1015.92,0,0,0,0,0.024376
2021/10/25 01:05:00.000,n,106,2.16,1.44,2.88,21.6,77.3,1015.92,0,0,0,0,0.022659
2021/10/25 01:06:00.005,n,132,2.16,1.44,2.88,21.6,77.1,1015.92,0,0,0,0,0.022659
2021/10/25 01:07:00.003,n,129,1.44,0,3.6,21.6,77.1,1015.82,0,0,0,0,0.021782
2021/10/25 01:08:00.000,n,106,6.48,6.12,7.2,21.6,77,1015.82,0,0,0,0,0.022659
2021/10/25 01:09:00.000,n,93,3.6,3.6,4.32,21.6,77.1,1015.72,0,0,0,0,0.022659
2021/10/25 01:10:00.009,n,114,5.04,3.96,5.76,21.6,77.1,1015.72,0,0,0,0,0.018311
2021/10/25 01:11:00.006,n,135,7.56,6.48,9.36,21.6,77.2,1015.72,0,0,0,0,0.021782
2021/10/25 01:12:00.002,n,78,7.2,3.6,9,21.6,77.3,1015.62,0,0,0,0,0.022659
2021/10/25 01:13:00.001,n,143,0.72,0.36,1.08,21.6,77.3,1015.62,0,0,0,0,0.020943
2021/10/25 01:14:00.000,n,119,6.12,5.04,7.92,21.5,77.3,1015.62,0,0,0,0,0.024376
2021/10/25 01:15:00.000,n,137,8.28,7.2,9.36,21.5,77.4,1015.52,0,0,0,0,0.028725
2021/10/25 01:16:00.006,n,113,3.6,3.24,3.96,21.5,77.5,1015.52,0,0,0,0,0.029602
2021/10/25 01:17:00.004,n,130,6.12,5.04,6.84,21.5,77.5,1015.52,0,0,0,0,0.028725
2021/10/25 01:18:00.000,n,140,6.84,5.4,8.28,21.5,77.5,1015.52,0,0,0,0,0.026169
2021/10/25 01:19:00.000,n,115,9.72,9,10.8,21.5,77.6,1015.42,0,0,0,0,0.028725
2021/10/25 01:20:00.011,n,58,4.32,1.08,5.04,21.5,77.6,1015.42,0,0,0,0,0.026169
2021/10/25 01:21:00.008,n,99,6.12,4.68,6.84,21.5,77.5,1015.42,0,0,0,0,0.022659
2021/10/25 01:22:00.000,n,71,5.04,2.52,7.92,21.5,77.6,1015.42,0,0,0,0,0.024376
2021/10/25 01:23:00.003,n,79,3.24,2.88,3.6,21.5,77.5,1015.52,0,0,0,0,0.026169
2021/10/25 01:24:00.001,n,20,3.6,3.24,3.96,21.5,77.6,1015.52,0,0,0,0,0.027885
2021/10/25 01:25:00.000,n,93,1.8,0.36,2.16,21.5,77.6,1015.52,0,0,0,0,0.024376
2021/10/25 01:26:00.000,n,99,4.32,3.6,5.4,21.5,77.5,1015.42,0,0,0,0,0.021782
2021/10/25 01:27:00.008,n,54,5.04,2.16,7.56,21.5,77.5,1015.42,0,0,0,0,0.022659
2021/10/25 01:28:00.005,n,54,3.24,1.44,4.32,21.5,77.5,1015.42,0,0,0,0,0.027008
2021/10/25 01:29:00.002,n,104,3.6,3.24,3.96,21.5,77.6,1015.42,0,0,0,0,0.022659
2021/10/25 01:30:00.000,n,39,3.6,1.44,5.4,21.5,77.6,1015.42,0,0,0,0,0.020943
2021/10/25 01:31:00.000,n,54,2.16,0.72,3.6,21.4,77.7,1015.42,0,0,0,0,0.023537
2021/10/25 01:32:00.000,n,41,3.24,2.16,3.96,21.4,77.7,1015.52,0,0,0,0,0.017433
2021/10/25 01:33:00.000,n,95,3.96,2.52,5.76,21.4,77.8,1015.52,0,0,0,0,0.022659
2021/10/25 01:34:00.005,n,132,1.08,0.72,1.44,21.4,77.8,1015.62,0,0,0,0,0.020027
2021/10/25 01:35:00.002,n,138,5.4,5.04,6.12,21.4,77.8,1015.62,0,0,0,0,0.024376
2021/10/25 01:36:00.000,n,123,3.96,3.6,4.32,21.4,77.8,1015.72,0,0,0,0,0.021782
2021/10/25 01:37:00.000,n,117,2.16,0,2.88,21.4,77.9,1015.72,0,0,0,0,0.020943
2021/10/25 01:38:00.010,n,138,3.24,2.52,3.96,21.4,77.9,1015.72,0,0,0,0,0.020027
2021/10/25 01:39:00.007,n,133,2.52,2.16,3.24,21.4,78,1015.62,0,0,0,0,0.020027
2021/10/25 01:40:00.000,n,83,1.8,1.08,2.16,21.4,78,1015.62,0,0,0,0,0.020943
2021/10/25 01:41:00.000,n,119,3.6,3.24,4.32,21.4,78,1015.62,0,0,0,0,0.020943
2021/10/25 01:42:00.000,n,91,3.6,3.24,3.96,21.4,78,1015.62,0,0,0,0,0.020943
2021/10/25 01:43:00.000,n,90,2.88,1.08,6.48,21.4,78,1015.62,0,0,0,0,0.020027
2021/10/25 01:44:00.008,n,129,8.28,8.28,9,21.4,77.9,1015.62,0,0,0,0,0.01915
2021/10/25 01:45:00.005,n,130,4.32,3.96,4.68,21.4,77.9,1015.62,0,0,0,0,0.01915
2021/10/25 01:46:00.002,n,129,3.96,2.16,4.68,21.4,77.9,1015.62,0,0,0,0,0.018311
2021/10/25 01:47:00.000,n,64,6.84,4.68,7.92,21.4,77.9,1015.52,0,0,0,0,0.023499
2021/10/25 01:48:00.015,n,91,7.92,4.32,10.08,21.4,77.8,1015.52,0,0,0,0,0.028687
2021/10/25 01:49:00.000,n,74,3.96,1.08,5.4,21.4,77.8,1015.52,0,0,0,0,0.030479
2021/10/25 01:50:00.000,n,20,3.6,2.88,3.96,21.4,77.7,1015.52,0,0,0,0,0.031319
2021/10/25 01:51:00.000,n,9,4.32,1.44,7.2,21.4,77.7,1015.42,0,0,0,0,0.028687
2021/10/25 01:52:00.005,n,70,5.04,2.52,7.92,21.5,77.6,1015.42,0,0,0,0,0.030479
2021/10/25 01:53:00.002,n,6,8.28,6.48,9,21.5,77.7,1015.42,0,0,0,0,0.030479
2021/10/25 01:54:00.000,n,6,5.04,5.04,5.4,21.5,77.6,1015.42,0,0,0,0,0.033073
2021/10/25 01:55:00.000,n,93,1.44,1.08,1.8,21.5,77.8,1015.42,0,0,0,0,0.032196
2021/10/25 01:56:00.009,n,77,3.96,1.44,4.68,21.5,77.7,1015.52,0,0,0,0,0.029602
2021/10/25 01:57:00.007,n,110,3.6,2.88,3.6,21.5,77.5,1015.52,0,0,0,0,0.033073
2021/10/25 01:58:00.000,n,101,1.8,0.36,3.96,21.5,77.7,1015.52,0,0,0,0,0.032196
2021/10/25 01:59:00.000,n,143,2.16,1.8,2.88,21.5,77.5,1015.62,0,0,0,0,0.031319
2021/10/25 02:00:00.000,n,182,2.16,1.08,4.32,21.5,77.3,1015.62,0,0,0,0,0.032196
2021/10/25 02:01:00.000,n,129,1.44,0,3.6,21.5,77.4,1015.62,0,0,0,0,0.033913
2021/10/25 02:02:00.008,n,150,4.32,1.44,8.28,21.5,77.4,1015.62,0,0,0,0,0.034828
2021/10/25 02:03:00.006,n,128,4.32,3.6,5.04,21.6,77.3,1015.62,0,0,0,0,0.033073
2021/10/25 02:04:00.002,n,120,1.44,1.08,1.8,21.5,77.3,1015.52,0,0,0,0,0.033913
2021/10/25 02:05:00.014,n,152,4.68,3.6,6.84,21.5,77.3,1015.52,0,0,0,0,0.034828
2021/10/25 02:06:00.011,n,146,2.16,1.08,2.52,21.5,77.4,1015.52,0,0,0,0,0.037422
2021/10/25 02:07:00.000,n,82,5.04,1.44,6.84,21.5,77.4,1015.52,0,0,0,0,0.033073
2021/10/25 02:08:00.000,n,172,5.76,3.24,7.92,21.5,77.4,1015.62,0,0,0,0,0.031319
2021/10/25 02:09:00.003,n,187,2.52,1.8,5.04,21.5,77.3,1015.62,0,0,0,0,0.033913
2021/10/25 02:10:00.000,n,136,6.48,5.76,7.56,21.6,77.3,1015.72,0,0,0,0,0.030479
2021/10/25 02:11:00.000,n,193,3.96,1.08,6.48,21.5,77.4,1015.72,0,0,0,0,0.035667
2021/10/25 02:12:00.000,n,112,1.44,0.36,3.24,21.5,77.4,1015.72,0,0,0,0,0.034828
2021/10/25 02:13:00.007,n,124,1.44,0.36,2.16,21.5,77.4,1015.72,0,0,0,0,0.035667
2021/10/25 02:14:00.004,n,90,1.44,0.36,1.44,21.5,77.4,1015.72,0,0,0,0,0.033913
2021/10/25 02:15:00.002,n,100,2.52,1.08,5.76,21.6,77.4,1015.62,0,0,0,0,0.033913
2021/10/25 02:16:00.000,n,135,1.08,0.36,3.6,21.6,77.4,1015.62,0,0,0,0,0.032196
2021/10/25 02:17:00.000,n,112,1.8,0.72,2.52,21.6,77.4,1015.62,0,0,0,0,0.033913
2021/10/25 02:18:00.000,n,60,1.8,0.72,2.88,21.6,77.4,1015.62,0,0,0,0,0.034828
2021/10/25 02:19:00.006,n,124,4.32,2.88,4.68,21.6,77.4,1015.62,0,0,0,0,0.038261
2021/10/25 02:20:00.004,n,152,7.92,6.84,10.8,21.5,77.4,1015.52,0,0,0,0,0.033913
2021/10/25 02:21:00.000,n,135,5.76,5.4,5.76,21.5,77.4,1015.62,0,0,0,0,0.035667
2021/10/25 02:22:00.000,n,108,6.48,6.12,7.2,21.5,77.5,1015.62,0,0,0,0,0.034828
2021/10/25 02:23:00.012,n,144,3.6,3.24,4.32,21.5,77.6,1015.62,0,0,0,0,0.034828
2021/10/25 02:24:00.010,n,133,2.88,2.88,3.24,21.5,77.7,1015.62,0,0,0,0,0.037422
2021/10/25 02:25:00.000,n,188,6.12,4.68,7.56,21.5,77.9,1015.62,0,0,0,0,0.034828
2021/10/25 02:26:00.003,n,145,4.32,3.96,4.68,21.5,77.8,1015.62,0,0,0,0,0.035667
2021/10/25 02:27:00.000,n,159,5.04,4.68,5.76,21.5,77.8,1015.72,0,0,0,0,0.034828
2021/10/25 02:28:00.000,n,131,1.44,1.44,2.52,21.4,77.8,1015.72,0,0,0,0,0.036545
2021/10/25 02:29:00.000,n,170,6.12,2.88,7.56,21.4,77.9,1015.72,0,0,0,0,0.034828
2021/10/25 02:30:00.008,n,176,3.6,1.8,6.12,21.4,78,1015.72,0,0,0,0,0.036545
2021/10/25 02:31:00.005,n,103,2.88,2.88,3.24,21.4,77.9,1015.72,0,0,0,0,0.039139
2021/10/25 02:32:00.002,n,49,2.52,1.8,2.88,21.4,78.2,1015.62,0,0,0,0,0.035667
2021/10/25 02:33:00.015,n,33,3.96,3.24,4.68,21.4,78,1015.62,0,0,0,0,0.036545
2021/10/25 02:34:00.000,n,54,2.88,2.52,3.24,21.4,78,1015.52,0,0,0,0,0.040054
2021/10/25 02:35:00.000,n,67,3.96,3.6,3.96,21.4,78,1015.52,0,0,0,0,0.033913
2021/10/25 02:36:00.000,n,62,3.96,3.6,4.68,21.4,78,1015.52,0,0,0,0,0.034828
2021/10/25 02:37:00.005,n,245,1.08,0.36,3.6,21.4,78.2,1015.52,0,0,0,0,0.040054
2021/10/25 02:38:00.003,n,90,1.08,0.72,1.44,21.4,78.1,1015.42,0,0,0,0,0.036545
2021/10/25 02:39:00.000,n,81,2.52,1.44,6.48,21.4,77.9,1015.42,0,0,0,0,0.035667
2021/10/25 02:40:00.000,n,66,2.16,1.08,5.76,21.4,78,1015.42,0,0,0,0,0.034828
2021/10/25 02:41:00.011,n,52,2.52,2.52,2.88,21.4,78,1015.42,0,0,0,0,0.035667
2021/10/25 02:42:00.008,n,72,1.44,0.36,3.6,21.4,78,1015.42,0,0,0,0,0.037422
2021/10/25 02:43:00.000,n,97,1.8,1.08,2.52,21.4,78.1,1015.52,0,0,0,0,0.036545
2021/10/25 02:44:00.002,n,65,3.6,3.24,3.6,21.4,78.2,1015.52,0,0,0,0,0.033913
2021/10/25 02:45:00.000,n,81,2.88,2.52,3.24,21.3,78.2,1015.52,0,0,0,0,0.033073
2021/10/25 02:46:00.000,n,89,2.52,1.8,2.88,21.3,78.3,1015.52,0,0,0,0,0.037422
2021/10/25 02:47:00.000,n,70,2.52,1.08,5.76,21.3,78.4,1015.52,0,0,0,0,0.036545
2021/10/25 02:48:00.008,n,130,2.16,0.72,4.32,21.4,78.4,1015.52,0,0,0,0,0.034828
2021/10/25 02:49:00.005,n,132,0.36,0.36,0.72,21.4,78.2,1015.52,0,0,0,0,0.033073
2021/10/25 02:50:00.002,n,121,2.16,1.8,2.88,21.4,78.1,1015.42,0,0,0,0,0.033073
2021/10/25 02:51:00.015,n,89,3.96,2.52,6.84,21.4,78.1,1015.42,0,0,0,0,0.033913
2021/10/25 02:52:00.000,n,102,4.68,4.32,4.68,21.3,78.1,1015.52,0,0,0,0,0.032196
2021/10/25 02:53:00.000,n,133,1.8,1.08,2.16,21.3,78.1,1015.52,0,0,0,0,0.033913
2021/10/25 02:54:00.000,n,161,1.8,0.72,5.04,21.3,78.2,1015.52,0,0,0,0,0.031319
2021/10/25 02:55:00.005,n,124,1.44,0.36,2.52,21.3,78.2,1015.52,0,0,0,0,0.031319
2021/10/25 02:56:00.002,n,178,6.48,3.96,7.92,21.3,78.1,1015.52,0,0,0,0,0.031319
2021/10/25 02:57:00.000,n,127,1.44,1.44,2.16,21.3,78.2,1015.62,0,0,0,0,0.036545
2021/10/25 02:58:00.011,n,150,1.44,0.72,2.52,21.3,78.2,1015.62,0,0,0,0,0.032196
2021/10/25 02:59:00.009,n,153,5.04,3.24,6.84,21.3,78.3,1015.62,0,0,0,0,0.037422
2021/10/25 03:00:00.006,n,155,3.24,3.24,3.24,21.3,78.4,1015.52,0,0,0,0,0.033073
2021/10/25 03:01:00.000,n,158,3.24,0.72,4.68,21.3,78.3,1015.52,0,0,0,0,0.031319
2021/10/25 03:02:00.001,n,121,1.8,1.44,2.16,21.3,78.4,1015.52,0,0,0,0,0.028687
2021/10/25 03:03:00.000,n,140,1.8,1.8,1.8,21.3,78.4,1015.42,0,0,0,0,0.031319
2021/10/25 03:04:00.000,n,238,1.08,0.36,2.52,21.3,78.5,1015.42,0,0,0,0,0.028687
2021/10/25 03:05:00.000,n,107,1.44,0.36,2.16,21.3,78.5,1015.42,0,0,0,0,0.028687
2021/10/25 03:06:00.006,n,115,3.6,2.88,3.96,21.3,78.5,1015.42,0,0,0,0,0.027847
2021/10/25 03:07:00.003,n,122,2.52,1.44,2.88,21.3,78.4,1015.42,0,0,0,0,0.032196
2021/10/25 03:08:00.000,n,127,1.44,1.08,1.8,21.3,78.5,1015.32,0,0,0,0,0.030479
2021/10/25 03:09:00.013,n,126,1.08,0,5.76,21.2,78.5,1015.32,0,0,0,0,0.028687
2021/10/25 03:10:00.000,n,166,0.36,0,0.72,21.2,78.6,1015.32,0,0,0,0,0.033913
2021/10/25 03:11:00.000,n,53,2.16,1.44,5.76,21.2,78.6,1015.42,0,0,0,0,0.028687
2021/10/25 03:12:00.000,n,92,1.44,0.72,1.44,21.3,78.5,1015.42,0,0,0,0,0.032196
2021/10/25 03:13:00.003,n,151,1.08,1.08,1.44,21.3,78.5,1015.42,0,0,0,0,0.031319
2021/10/25 03:14:00.000,n,175,2.88,0.72,4.68,21.3,78.5,1015.42,0,0,0,0,0.030479
2021/10/25 03:15:00.000,n,75,1.8,0.36,6.12,21.3,78.6,1015.42,0,0,0,0,0.033073
2021/10/25 03:16:00.010,n,54,1.8,1.08,5.76,21.3,78.3,1015.42,0,0,0,0,0.030479
2021/10/25 03:17:00.007,n,97,1.8,1.8,2.16,21.3,78.2,1015.42,0,0,0,0,0.030479
2021/10/25 03:18:00.004,n,61,2.16,2.16,2.16,21.3,78.2,1015.42,0,0,0,0,0.027847
2021/10/25 03:19:00.002,n,51,2.52,2.52,2.88,21.3,78.3,1015.42,0,0,0,0,0.028687
2021/10/25 03:20:00.000,n,65,2.88,2.52,2.88,21.3,78.3,1015.42,0,0,0,0,0.030479
2021/10/25 03:21:00.000,n,185,0.72,0.36,1.44,21.3,78.4,1015.42,0,0,0,0,0.032196
2021/10/25 03:22:00.000,n,49,3.6,2.88,6.84,21.3,78.3,1015.42,0,0,0,0,0.027847
2021/10/25 03:23:00.006,n,69,3.24,1.44,3.96,21.3,78.3,1015.32,0,0,0,0,0.028687
2021/10/25 03:24:00.004,n,71,2.88,2.52,3.24,21.3,78.3,1015.32,0,0,0,0,0.029602
2021/10/25 03:25:00.000,n,103,3.6,3.24,3.6,21.3,78.4,1015.32,0,0,0,0,0.027847
2021/10/25 03:26:00.013,n,94,3.6,3.24,4.32,21.3,78.3,1015.32,0,0,0,0,0.029602
2021/10/25 03:27:00.010,n,116,2.16,1.8,2.52,21.3,78.3,1015.32,0,0,0,0,0.031319
2021/10/25 03:28:00.000,n,115,3.6,2.88,4.68,21.3,78.3,1015.32,0,0,0,0,0.028687
2021/10/25 03:29:00.000,n,84,2.52,2.16,2.88,21.3,78.4,1015.32,0,0,0,0,0.030479
2021/10/25 03:30:00.000,n,49,2.88,1.8,6.48,21.3,78.4,1015.32,0,0,0,0,0.030479
2021/10/25 03:31:00.000,n,37,3.24,2.52,6.48,21.3,78.3,1015.32,0,0,0,0,0.033073
2021/10/25 03:32:00.000,n,103,1.44,0.36,3.96,21.3,78.5,1015.32,0,0,0,0,0.032196
2021/10/25 03:33:00.008,n,146,2.16,0.72,2.52,21.3,78.4,1015.42,0,0,0,0,0.033073
2021/10/25 03:34:00.005,n,140,1.8,0.36,3.96,21.4,78.3,1015.32,0,0,0,0,0.030479
2021/10/25 03:35:00.002,n,128,1.44,1.08,1.8,21.4,78.2,1015.32,0,0,0,0,0.033073
2021/10/25 03:36:00.016,n,152,1.08,0.36,5.4,21.4,78.4,1015.32,0,0,0,0,0.033073
2021/10/25 03:37:00.000,n,48,2.52,2.16,2.88,21.4,78.1,1015.32,0,0,0,0,0.033913
2021/10/25 03:38:00.000,n,55,2.88,2.88,2.88,21.4,78,1015.32,0,0,0,0,0.033913
2021/10/25 03:39:00.000,n,60,3.6,2.16,6.48,21.4,78,1015.32,0,0,0,0,0.033913
2021/10/25 03:40:00.005,n,80,2.16,0.36,6.84,21.4,78.1,1015.32,0,0,0,0,0.034828
2021/10/25 03:41:00.002,n,32,2.52,0.36,5.4,21.4,78.1,1015.32,0,0,0,0,0.036545
2021/10/25 03:42:00.000,n,95,1.8,1.44,2.16,21.4,78.2,1015.32,0,0,0,0,0.033913
2021/10/25 03:43:00.000,n,177,2.88,1.8,5.04,21.4,78.1,1015.32,0,0,0,0,0.036545
2021/10/25 03:44:00.011,n,201,0.36,0,0.72,21.4,78.2,1015.32,0,0,0,0,0.036545
2021/10/25 03:45:00.009,n,164,4.32,1.8,4.68,21.4,78.1,1015.22,0,0,0,0,0.033073
2021/10/25 03:46:00.000,n,8,1.8,0.36,4.32,21.4,78.2,1015.22,0,0,0,0,0.033073
2021/10/25 03:47:00.002,n,104,1.8,1.44,2.52,21.4,78.1,1015.22,0,0,0,0,0.036545
2021/10/25 03:48:00.000,n,114,2.16,2.16,2.52,21.3,78.2,1015.22,0,0,0,0,0.037422
2021/10/25 03:49:00.000,n,89,2.52,1.08,5.4,21.3,78.3,1015.22,0,0,0,0,0.035667
2021/10/25 03:50:00.000,n,103,2.16,2.16,2.52,21.3,78.3,1015.22,0,0,0,0,0.035667
2021/10/25 03:51:00.008,n,152,2.52,1.8,5.4,21.3,78.3,1015.22,0,0,0,0,0.033913
2021/10/25 03:52:00.005,n,158,2.52,2.16,5.76,21.3,78.4,1015.22,0,0,0,0,0.033913
2021/10/25 03:53:00.003,n,146,2.52,2.52,2.88,21.3,78.5,1015.32,0,0,0,0,0.034828
2021/10/25 03:54:00.001,n,141,4.32,4.32,4.32,21.3,78.5,1015.32,0,0,0,0,0.034828
2021/10/25 03:55:00.000,n,136,2.88,2.52,2.88,21.3,78.6,1015.32,0,0,0,0,0.032196
2021/10/25 03:56:00.000,n,144,3.24,2.52,3.24,21.3,78.6,1015.22,0,0,0,0,0.033913
2021/10/25 03:57:00.000,n,137,2.88,2.88,3.24,21.2,78.6,1015.22,0,0,0,0,0.033913
2021/10/25 03:58:00.000,n,133,3.96,3.24,4.32,21.2,78.7,1015.22,0,0,0,0,0.035667
2021/10/25 03:59:00.003,n,155,3.6,3.6,3.6,21.2,78.7,1015.32,0,0,0,0,0.035667
2021/10/25 04:00:00.001,n,147,4.32,4.32,4.32,21.2,78.7,1015.32,0,0,0,0,0.033073
2021/10/25 04:01:00.000,n,150,1.8,0.72,2.88,21.2,78.7,1015.32,0,0,0,0,0.038261
2021/10/25 04:02:00.011,n,154,4.68,3.24,6.84,21.2,78.7,1015.32,0,0,0,0,0.035667
2021/10/25 04:03:00.009,n,155,1.8,1.44,2.52,21.2,78.8,1015.42,0,0,0,0,0.033073
2021/10/25 04:04:00.000,n,169,3.6,2.88,6.84,21.2,78.8,1015.42,0,0,0,0,0.033073
2021/10/25 04:05:00.002,n,163,2.88,1.08,4.32,21.2,78.7,1015.42,0,0,0,0,0.037422
2021/10/25 04:06:00.000,n,128,2.16,0.36,3.96,21.2,78.7,1015.42,0,0,0,0,0.037422
2021/10/25 04:07:00.000,n,133,3.24,2.88,4.32,21.2,78.7,1015.42,0,0,0,0,0.033913
2021/10/25 04:08:00.000,n,143,3.6,3.24,3.96,21.2,78.8,1015.42,0,0,0,0,0.040894
2021/10/25 04:09:00.008,n,143,2.88,2.52,3.6,21.2,78.8,1015.42,0,0,0,0,0.036545
2021/10/25 04:10:00.005,n,172,3.24,2.52,7.2,21.3,78.8,1015.52,0,0,0,0,0.036545
2021/10/25 04:11:00.002,n,180,3.6,2.52,6.48,21.3,78.9,1015.42,0,0,0,0,0.040054
2021/10/25 04:12:00.000,n,155,2.52,2.52,2.52,21.3,78.9,1015.52,0,0,0,0,0.033073
2021/10/25 04:13:00.000,n,174,2.88,2.16,5.4,21.3,79,1015.52,0,0,0,0,0.033073
2021/10/25 04:14:00.000,n,172,2.88,2.52,3.24,21.3,78.9,1015.52,0,0,0,0,0.038261
2021/10/25 04:15:00.000,n,178,2.88,0.72,5.76,21.3,79,1015.62,0,0,0,0,0.035667
2021/10/25 04:16:00.005,n,166,3.96,3.24,5.04,21.3,78.9,1015.62,0,0,0,0,0.033913
2021/10/25 04:17:00.003,n,170,6.12,5.04,9,21.3,78.7,1015.62,0,0,0,0,0.034828
2021/10/25 04:18:00.000,n,156,3.6,2.88,6.48,21.2,78.6,1015.62,0,0,0,0,0.035667
2021/10/25 04:19:00.000,n,171,5.4,3.6,7.92,21.2,78.5,1015.62,0,0,0,0,0.033913
2021/10/25 04:20:00.010,n,159,3.6,2.52,6.48,21.2,78.6,1015.62,0,0,0,0,0.038261
2021/10/25 04:21:00.008,n,172,3.6,2.88,5.76,21.2,78.6,1015.72,0,0,0,0,0.035667
2021/10/25 04:22:00.000,n,167,4.32,3.6,7.56,21.2,78.7,1015.72,0,0,0,0,0.032196
2021/10/25 04:23:00.000,n,169,3.24,2.88,3.6,21.2,78.6,1015.72,0,0,0,0,0.036545
2021/10/25 04:24:00.000,n,165,2.88,2.52,2.88,21.2,78.7,1015.72,0,0,0,0,0.035667
2021/10/25 04:25:00.000,n,132,3.24,2.88,3.24,21.2,78.8,1015.72,0,0,0,0,0.035667
2021/10/25 04:26:00.009,n,155,3.24,2.52,5.4,21.2,78.8,1015.72,0,0,0,0,0.033913
2021/10/25 04:27:00.006,n,156,3.24,1.8,4.32,21.2,78.9,1015.72,0,0,0,0,0.035667
2021/10/25 04:28:00.002,n,139,5.04,4.32,5.4,21.2,78.8,1015.72,0,0,0,0,0.034828
2021/10/25 04:29:00.000,n,260,1.8,0.36,3.96,21.2,78.7,1015.72,0,0,0,0,0.039139
2021/10/25 04:30:00.013,n,168,2.16,1.44,2.88,21.2,78.8,1015.62,0,0,0,0,0.039139
2021/10/25 04:31:00.000,n,156,4.32,1.44,5.76,21.2,78.8,1015.62,0,0,0,0,0.040054
2021/10/25 04:32:00.000,n,161,2.52,0.36,4.68,21.2,78.8,1015.62,0,0,0,0,0.039139
2021/10/25 04:33:00.004,n,53,2.16,0.72,5.04,21.2,78.6,1015.62,0,0,0,0,0.040894
2021/10/25 04:34:00.002,n,3,5.04,3.24,6.48,21.2,78.5,1015.62,0,0,0,0,0.040894
2021/10/25 04:35:00.000,n,36,2.52,2.16,2.52,21.2,78.5,1015.52,0,0,0,0,0.044365
2021/10/25 04:36:00.000,n,31,2.52,1.08,2.88,21.2,78.7,1015.52,0,0,0,0,0.048714
2021/10/25 04:37:00.009,n,24,1.8,0.36,2.52,21.2,78.7,1015.52,0,0,0,0,0.047836
2021/10/25 04:38:00.007,n,90,4.32,3.96,4.32,21.2,78.6,1015.52,0,0,0,0,0.052223
2021/10/25 04:39:00.004,n,86,3.24,2.88,3.6,21.2,78.6,1015.42,0,0,0,0,0.061798
2021/10/25 04:40:00.001,n,66,3.6,3.6,3.96,21.2,78.6,1015.42,0,0,0,0,0.066147
2021/10/25 04:41:00.000,n,111,3.24,3.24,3.96,21.2,78.6,1015.42,0,0,0,0,0.08091
2021/10/25 04:42:00.000,n,77,2.52,2.52,2.88,21.1,78.7,1015.42,0,0,0,0,0.095711
2021/10/25 04:43:00.000,n,14,1.8,1.8,2.16,21.1,78.8,1015.52,0,0,0,0,0.118332
2021/10/25 04:44:00.006,n,180,2.16,0.36,5.4,21.1,78.8,1015.52,0,0,0,0,0.147896
2021/10/25 04:45:00.003,n,112,1.44,1.44,1.44,21.1,78.8,1015.52,0,0,0,0,0.186157
2021/10/25 04:46:00.001,n,105,1.44,1.44,1.8,21.1,78.9,1015.52,0,0,0,0,0.234833
2021/10/25 04:47:00.014,n,154,2.16,1.08,4.68,21.1,78.9,1015.52,0,0,0,0,0.296555
2021/10/25 04:48:00.011,n,98,1.08,0,3.96,21.1,79,1015.62,0,0,0,0,0.36953
2021/10/25 04:49:00.000,n,158,4.32,1.44,5.04,21.1,79,1015.62,0,0,0,0,0.450249
2021/10/25 04:50:00.000,n,184,4.32,2.88,6.84,21.1,79.1,1015.72,0,0,0,0,0.542259
2021/10/25 04:51:00.002,n,175,3.96,3.24,6.84,21.1,79.1,1015.72,0,0,0,0,0.643539
2021/10/25 04:52:00.000,n,178,5.04,3.6,6.84,21.1,79.2,1015.72,0,0,0,0,0.763664
2021/10/25 04:53:00.000,n,180,5.04,3.96,7.56,21.1,79.3,1015.82,0,0,0,0,0.90107
2021/10/25 04:54:00.009,n,159,3.24,2.16,6.48,21.1,79.2,1015.82,0,0,0,0,1.048813
2021/10/25 04:55:00.006,n,143,2.88,2.16,3.24,21.1,79.3,1015.92,0,0,0,0,1.203384
2021/10/25 04:56:00.002,n,158,3.24,3.24,3.6,21.1,79.3,1015.92,0,0,0,0,1.366501